timestamp,wind_dir_avg,wind_spd_avg,wind_spd_max_dir,wind_spd_gust,battery_voltage,lat,long
2022-12-26 00:04:00+00:00,226.0,9.33,228.0,10.53,12.41,47.59359,-54.27349
2022-12-26 00:14:01+00:00,230.0,9.13,222.0,10.79,12.41,47.59359,-54.27349
2022-12-26 00:24:01+00:00,228.0,8.63,220.0,9.84,12.41,47.59359,-54.27349
2022-12-26 00:34:01+00:00,230.0,9.41,231.0,10.55,12.41,47.59359,-54.27349
2022-12-26 00:44:01+00:00,227.0,8.69,223.0,9.92,12.41,47.59359,-54.27349
2022-12-26 00:54:01+00:00,223.0,8.4,218.0,9.51,12.41,47.59359,-54.27349
2022-12-26 01:04:01+00:00,209.0,7.4,212.0,8.49,12.41,47.59359,-54.27349
2022-12-26 01:14:01+00:00,207.0,9.04,207.0,10.74,12.41,47.59359,-54.27349
2022-12-26 01:24:01+00:00,212.0,9.26,213.0,10.98,12.41,47.59359,-54.27349
2022-12-26 01:34:01+00:00,213.0,9.11,216.0,10.12,12.41,47.59359,-54.27349
2022-12-26 01:44:01+00:00,213.0,11.03,216.0,12.11,12.41,47.59359,-54.27349
2022-12-26 01:54:01+00:00,213.0,10.56,210.0,12.19,12.41,47.59359,-54.27349
2022-12-26 02:04:01+00:00,217.0,11.15,234.0,13.86,12.41,47.59359,-54.27349
2022-12-26 02:14:00+00:00,228.0,11.63,232.0,14.76,12.41,47.59359,-54.27349
2022-12-26 02:24:00+00:00,229.0,10.98,231.0,13.71,12.41,47.59359,-54.27349
2022-12-26 02:34:00+00:00,227.0,10.45,223.0,12.8,12.41,47.59359,-54.27349
2022-12-26 02:44:00+00:00,227.0,9.44,228.0,11.18,12.41,47.59359,-54.27349
2022-12-26 02:54:00+00:00,227.0,9.61,214.0,11.63,12.41,47.59359,-54.27349
2022-12-26 03:04:00+00:00,228.0,10.25,225.0,12.74,12.41,47.59359,-54.27349
2022-12-26 03:14:00+00:00,226.0,9.91,232.0,12.05,12.41,47.59359,-54.27349
2022-12-26 03:24:00+00:00,218.0,9.41,217.0,10.94,12.41,47.59359,-54.27349
2022-12-26 03:34:00+00:00,223.0,10.37,214.0,12.39,12.41,47.59359,-54.27349
2022-12-26 03:44:00+00:00,227.0,10.36,221.0,12.47,12.41,47.59359,-54.27349
2022-12-26 03:54:00+00:00,223.0,10.82,229.0,12.51,12.41,47.59359,-54.27349
2022-12-26 04:04:00+00:00,224.0,11.12,214.0,13.73,12.41,47.59359,-54.27349
2022-12-26 04:14:00+00:00,223.0,10.64,228.0,12.39,12.33,47.59359,-54.27349
2022-12-26 04:24:00+00:00,219.0,10.35,219.0,12.33,12.33,47.59359,-54.27349
2022-12-26 04:34:00+00:00,216.0,10.71,214.0,12.35,12.33,47.59359,-54.27349
2022-12-26 04:44:00+00:00,223.0,11.51,217.0,13.68,12.33,47.59359,-54.27349
2022-12-26 04:54:00+00:00,219.0,10.78,219.0,12.08,12.33,47.59359,-54.27349
2022-12-26 05:04:00+00:00,221.0,12.09,212.0,14.67,12.33,47.59359,-54.27349
2022-12-26 05:14:00+00:00,225.0,11.38,230.0,13.97,12.33,47.59359,-54.27349
2022-12-26 05:24:00+00:00,226.0,11.91,228.0,14.56,12.33,47.59359,-54.27349
2022-12-26 05:34:00+00:00,227.0,11.36,226.0,14.21,12.33,47.59359,-54.27349
2022-12-26 05:44:00+00:00,229.0,11.52,232.0,14.13,12.33,47.59359,-54.27349
2022-12-26 05:54:00+00:00,228.0,12.64,225.0,16.28,12.33,47.59359,-54.27349
2022-12-26 06:04:00+00:00,230.0,14.17,235.0,17.44,12.33,47.59359,-54.27349
2022-12-26 06:14:00+00:00,231.0,12.21,233.0,14.33,12.33,47.59359,-54.27349
2022-12-26 06:24:00+00:00,236.0,10.71,240.0,13.63,12.33,47.59359,-54.27349
2022-12-26 06:34:00+00:00,245.0,8.79,250.0,10.07,12.33,47.59359,-54.27349
2022-12-26 06:44:00+00:00,249.0,10.79,248.0,12.15,12.33,47.59359,-54.27349
2022-12-26 06:54:00+00:00,244.0,11.34,243.0,13.4,12.33,47.59359,-54.27349
2022-12-26 07:04:00+00:00,247.0,9.08,259.0,10.97,12.33,47.59359,-54.27349
2022-12-26 07:14:00+00:00,243.0,8.92,245.0,11.38,12.33,47.59359,-54.27349
2022-12-26 07:24:00+00:00,234.0,6.75,231.0,8.86,12.33,47.59359,-54.27349
2022-12-26 07:34:00+00:00,239.0,9.37,238.0,10.04,12.33,47.59359,-54.27349
2022-12-26 07:44:00+00:00,237.0,8.56,236.0,9.37,12.33,47.59359,-54.27349
2022-12-26 07:54:00+00:00,237.0,9.72,238.0,10.87,12.33,47.59359,-54.27349
2022-12-26 08:04:00+00:00,229.0,7.7,231.0,8.96,12.33,47.59359,-54.27349
2022-12-26 08:14:00+00:00,226.0,9.38,221.0,11.46,12.33,47.59359,-54.27349
2022-12-26 08:24:00+00:00,238.0,10.71,247.0,12.58,12.33,47.59359,-54.27349
2022-12-26 08:34:00+00:00,258.0,9.93,258.0,11.53,12.33,47.59359,-54.27349
2022-12-26 08:44:00+00:00,252.0,8.65,244.0,9.95,12.33,47.59359,-54.27349
2022-12-26 08:54:00+00:00,258.0,8.85,253.0,10.84,12.33,47.59359,-54.27349
2022-12-26 09:04:00+00:00,260.0,9.1,254.0,10.43,12.33,47.59359,-54.27349
2022-12-26 09:14:00+00:00,252.0,10.29,251.0,12.04,12.33,47.59359,-54.27349
2022-12-26 09:24:00+00:00,253.0,9.24,252.0,10.69,12.33,47.59359,-54.27349
2022-12-26 09:34:00+00:00,250.0,9.89,250.0,11.35,12.33,47.59359,-54.27349
2022-12-26 09:44:00+00:00,252.0,8.42,255.0,10.12,12.33,47.59359,-54.27349
2022-12-26 09:54:00+00:00,246.0,8.65,248.0,10.89,12.33,47.59359,-54.27349
2022-12-26 10:04:00+00:00,247.0,8.56,248.0,10.96,12.33,47.59359,-54.27349
2022-12-26 10:14:00+00:00,249.0,8.59,246.0,9.69,12.33,47.59359,-54.27349
2022-12-26 10:24:00+00:00,249.0,8.84,247.0,11.08,12.33,47.59359,-54.27349
2022-12-26 10:34:00+00:00,251.0,9.75,250.0,10.95,12.33,47.59359,-54.27349
2022-12-26 10:44:00+00:00,247.0,8.95,249.0,10.9,12.33,47.59359,-54.27349
2022-12-26 10:54:00+00:00,245.0,9.31,247.0,10.88,12.33,47.59359,-54.27349
2022-12-26 11:04:00+00:00,247.0,9.45,245.0,11.09,12.33,47.59359,-54.27349
2022-12-26 11:14:00+00:00,240.0,9.49,243.0,11.18,12.25,47.59359,-54.27349
2022-12-26 11:24:00+00:00,245.0,9.99,245.0,11.02,12.25,47.59359,-54.27349
2022-12-26 11:34:00+00:00,244.0,10.25,239.0,11.39,12.25,47.59359,-54.27349
2022-12-26 11:44:00+00:00,242.0,10.06,240.0,11.53,12.25,47.59359,-54.27349
2022-12-26 11:54:00+00:00,243.0,9.92,241.0,11.38,12.25,47.59359,-54.27349
2022-12-26 12:04:00+00:00,244.0,9.06,245.0,11.13,12.25,47.59359,-54.27349
2022-12-26 12:14:00+00:00,244.0,8.71,247.0,10.89,12.25,47.59359,-54.27349
2022-12-26 12:24:00+00:00,251.0,8.3,253.0,10.23,12.25,47.59359,-54.27349
2022-12-26 12:34:00+00:00,242.0,10.17,241.0,11.35,12.25,47.59359,-54.27349
2022-12-26 12:44:00+00:00,247.0,8.86,250.0,10.24,12.25,47.59359,-54.27349
2022-12-26 12:54:00+00:00,242.0,8.83,247.0,10.94,12.25,47.59359,-54.27349
2022-12-26 13:04:00+00:00,240.0,8.95,247.0,10.84,12.25,47.59359,-54.27349
2022-12-26 13:14:00+00:00,244.0,9.41,246.0,11.14,12.33,47.59359,-54.27349
2022-12-26 13:24:00+00:00,248.0,9.21,252.0,10.93,12.33,47.59359,-54.27349
2022-12-26 13:34:00+00:00,258.0,9.83,260.0,10.71,12.33,47.59359,-54.27349
2022-12-26 13:44:00+00:00,249.0,9.58,244.0,11.22,12.33,47.59359,-54.27349
2022-12-26 13:54:00+00:00,250.0,9.96,251.0,10.64,12.33,47.59359,-54.27349
2022-12-26 14:04:00+00:00,240.0,8.72,245.0,10.79,12.33,47.59359,-54.27349
2022-12-26 14:14:00+00:00,253.0,10.31,251.0,11.04,12.89,47.59359,-54.27349
2022-12-26 14:24:00+00:00,258.0,9.34,260.0,10.43,12.89,47.59359,-54.27349
2022-12-26 14:34:00+00:00,258.0,9.8,261.0,10.62,12.89,47.59359,-54.27349
2022-12-26 14:44:00+00:00,256.0,9.18,254.0,10.93,12.89,47.59359,-54.27349
2022-12-26 14:54:00+00:00,254.0,9.26,257.0,10.71,12.89,47.59359,-54.27349
2022-12-26 15:04:00+00:00,253.0,9.18,254.0,10.66,12.89,47.59359,-54.27349
2022-12-26 15:14:01+00:00,251.0,8.81,253.0,10.88,12.73,47.59359,-54.27349
2022-12-26 15:24:01+00:00,244.0,10.27,241.0,11.56,12.73,47.59359,-54.27349
2022-12-26 15:34:01+00:00,250.0,8.94,251.0,11.07,12.73,47.59359,-54.27349
2022-12-26 15:44:01+00:00,251.0,10.51,250.0,11.28,12.73,47.59359,-54.27349
2022-12-26 15:54:01+00:00,248.0,9.38,248.0,11.14,12.73,47.59359,-54.27349
2022-12-26 16:04:01+00:00,246.0,9.07,254.0,11.09,12.73,47.59359,-54.27349
2022-12-26 16:14:01+00:00,244.0,10.72,241.0,11.59,13.6,47.59359,-54.27349
2022-12-26 16:24:01+00:00,244.0,7.85,251.0,10.58,13.6,47.59359,-54.27349
2022-12-26 16:34:01+00:00,242.0,10.09,243.0,11.21,13.6,47.59359,-54.27349
2022-12-26 16:44:01+00:00,236.0,10.39,233.0,12.18,13.6,47.59359,-54.27349
2022-12-26 16:54:01+00:00,236.0,9.92,237.0,11.18,13.6,47.59359,-54.27349
2022-12-26 17:04:01+00:00,241.0,10.19,246.0,11.92,13.6,47.59359,-54.27349
2022-12-26 17:14:00+00:00,248.0,10.83,249.0,12.59,12.89,47.59359,-54.27349
2022-12-26 17:24:00+00:00,254.0,8.54,253.0,10.32,12.89,47.59359,-54.27349
2022-12-26 17:34:00+00:00,249.0,11.17,248.0,13.04,12.89,47.59359,-54.27349
2022-12-26 17:44:00+00:00,258.0,12.13,265.0,17.42,12.89,47.59359,-54.27349
2022-12-26 17:54:00+00:00,253.0,8.83,243.0,10.14,12.89,47.59359,-54.27349
2022-12-26 18:04:00+00:00,251.0,10.37,250.0,12.66,12.89,47.59359,-54.27349
2022-12-26 18:14:01+00:00,249.0,9.79,253.0,12.53,13.13,47.59359,-54.27349
2022-12-26 18:24:01+00:00,256.0,9.12,247.0,11.85,13.13,47.59359,-54.27349
2022-12-26 18:34:01+00:00,256.0,8.47,262.0,11.02,13.13,47.59359,-54.27349
2022-12-26 18:44:01+00:00,265.0,8.59,271.0,10.07,13.13,47.59359,-54.27349
2022-12-26 18:54:01+00:00,252.0,9.25,255.0,11.55,13.13,47.59359,-54.27349
2022-12-26 19:04:01+00:00,254.0,8.89,266.0,11.05,13.13,47.59359,-54.27349
2022-12-26 19:14:01+00:00,254.0,7.94,261.0,10.91,13.21,47.59359,-54.27349
2022-12-26 19:24:01+00:00,252.0,8.61,255.0,10.56,13.21,47.59359,-54.27349
2022-12-26 19:34:01+00:00,248.0,9.03,253.0,11.97,13.21,47.59359,-54.27349
2022-12-26 19:44:01+00:00,259.0,7.97,257.0,9.54,13.21,47.59359,-54.27349
2022-12-26 19:54:01+00:00,257.0,8.48,259.0,10.81,13.21,47.59359,-54.27349
2022-12-26 20:04:01+00:00,249.0,10.77,254.0,14.34,13.21,47.59359,-54.27349
2022-12-26 20:14:01+00:00,265.0,8.99,269.0,11.6,12.57,47.59359,-54.27349
2022-12-26 20:24:01+00:00,270.0,7.64,271.0,11.08,12.57,47.59359,-54.27349
2022-12-26 20:34:01+00:00,262.0,8.18,257.0,9.32,12.57,47.59359,-54.27349
2022-12-26 20:44:01+00:00,272.0,9.39,277.0,10.67,12.57,47.59359,-54.27349
2022-12-26 20:54:01+00:00,257.0,8.67,267.0,10.76,12.57,47.59359,-54.27349
2022-12-26 21:04:01+00:00,258.0,9.03,253.0,11.06,12.57,47.59359,-54.27349
2022-12-26 21:14:00+00:00,265.0,8.07,268.0,9.83,12.49,47.59359,-54.27349
2022-12-26 21:24:00+00:00,258.0,9.18,263.0,10.67,12.49,47.59359,-54.27349
2022-12-26 21:34:00+00:00,259.0,9.78,257.0,10.81,12.49,47.59359,-54.27349
2022-12-26 21:44:00+00:00,268.0,8.52,268.0,10.39,12.49,47.59359,-54.27349
2022-12-26 21:54:00+00:00,255.0,9.63,258.0,10.68,12.49,47.59359,-54.27349
2022-12-26 22:04:00+00:00,260.0,8.29,258.0,10.56,12.49,47.59359,-54.27349
2022-12-26 22:14:01+00:00,272.0,8.29,276.0,9.61,12.41,47.59359,-54.27349
2022-12-26 22:24:01+00:00,285.0,9.03,284.0,11.44,12.41,47.59359,-54.27349
2022-12-26 22:34:01+00:00,275.0,10.66,271.0,12.12,12.41,47.59359,-54.27349
2022-12-26 22:44:01+00:00,283.0,8.37,282.0,10.16,12.41,47.59359,-54.27349
2022-12-26 22:54:01+00:00,274.0,8.48,279.0,10.32,12.41,47.59359,-54.27349
2022-12-26 23:04:01+00:00,276.0,8.72,277.0,10.34,12.41,47.59359,-54.27349
2022-12-26 23:14:01+00:00,268.0,6.92,266.0,9.96,12.41,47.59359,-54.27349
2022-12-26 23:24:01+00:00,272.0,9.43,269.0,10.23,12.41,47.59359,-54.27349
2022-12-26 23:34:01+00:00,280.0,8.77,279.0,10.44,12.41,47.59359,-54.27349
2022-12-26 23:44:01+00:00,275.0,8.4,262.0,10.28,12.41,47.59359,-54.27349
2022-12-26 23:54:01+00:00,265.0,7.52,266.0,9.85,12.41,47.59359,-54.27349
